Location: Newark
(3.0500°N, 36.0167°E)
Time: 08:18:54
(UTC+00:00)

A-11 Canister half - Pass Details

Date: 30 August 2019
Orbit: 1527 x 1682 km, 47.3° (Epoch: 20 September)

Event Time Altitude Azimuth Distance (km) Brightness Sun altitude
Rises 05:35:45 0° 240° (WSW) 4,705 11.1 29.8°
Reaches altitude 10° 05:39:05 10° 248° (WSW) 3,738 10.6 30.7°
Maximum altitude 05:47:35 37° 312° (NW) 2,272 9.9 32.8°
Drops below altitude 10° 05:56:22 10° 17° (NNE) 3,841 11.5 34.9°
Sets 05:59:53 0° 25° (NNE) 4,848 12.0 35.8°
